EW2704 Weather Reports


Display with metric or nautical units.
time (UTC)temp
F
wind
direction
speed
MPH
gust
MPH
rain 1hr
in
rain 24hr
in
rain mn
in
humidity
%
barometer
mb
20260504081903 57 141 1.0 2.0 0.00 0.00 0.00 54 1003.5
20260504080902 58 141 0.0 0.0 0.00 0.00 0.00 55 1003.6
20260504080403 58 141 0.0 0.0 0.00 0.00 0.00 56 1003.7
20260504045903 68 126 0.0 0.0 0.00 0.00 0.00 41 1003.2
20260504044903 68 126 0.0 0.0 0.00 0.00 0.00 41 1003.1
20260504044403 69 126 0.0 0.0 0.00 0.00 0.00 41 1002.9
20260504043902 69 126 0.0 0.0 0.00 0.00 0.00 40 1002.9
20260504041903 71 126 0.0 0.0 0.00 0.00 0.00 37 1002.7
20260504041402 71 126 0.0 0.0 0.00 0.00 0.00 37 1002.6
20260504040903 72 126 0.0 2.0 0.00 0.00 0.00 37 1002.6
20260504040402 72 125 0.0 2.0 0.00 0.00 0.00 36 1002.8
20260504035903 73 126 0.0 0.0 0.00 0.00 0.00 35 1002.7
20260504035402 73 125 0.0 0.0 0.00 0.00 0.00 32 996.9
20260504034402 74 125 0.0 0.0 0.00 0.00 0.00 32 1002.6
20260504033902 75 126 0.0 0.0 0.00 0.00 0.00 30 1002.5
20260504033403 75 126 0.0 0.0 0.00 0.00 0.00 30 1002.4
20260504032902 76 126 0.0 0.0 0.00 0.00 0.00 29 1002.2
20260504032402 76 126 0.0 0.0 0.00 0.00 0.00 29 1002.2
20260504031902 77 126 0.0 0.0 0.00 0.00 0.00 29 1002.2
20260504031403 78 126 0.0 0.0 0.00 0.00 0.00 28 1002.2
20260504030902 79 126 0.0 2.0 0.00 0.00 0.00 29 1002.1
20260504025902 81 123 0.0 0.0 0.00 0.00 0.00 27 1002.4
20260504025403 82 123 0.0 0.0 0.00 0.00 0.00 27 1002.4
20260504024902 82 123 0.0 0.0 0.00 0.00 0.00 27 1002.4
20260504024402 83 123 0.0 0.0 0.00 0.00 0.00 26 1002.4
20260504023902 83 123 0.0 0.0 0.00 0.00 0.00 25 1002.3
20260504023402 84 123 0.0 0.0 0.00 0.00 0.00 25 1002.3
20260504022902 84 123 0.0 1.0 0.00 0.00 0.00 24 1002.3
20260504022402 85 123 0.0 0.0 0.00 0.00 0.00 23 1002.3
20260504021403 85 123 0.0 1.0 0.00 0.00 0.00 23 1002.3
20260504020402 86 123 0.0 0.0 0.00 0.00 0.00 22 1002.5
20260504015902 86 123 0.0 0.0 0.00 0.00 0.00 22 1002.5
20260504015403 86 123 0.0 0.0 0.00 0.00 0.00 22 1002.5
20260504014902 86 123 0.0 0.0 0.00 0.00 0.00 23 1002.6
20260504014403 86 123 0.0 0.0 0.00 0.00 0.00 23 1002.5
20260504013902 86 123 0.0 0.0 0.00 0.00 0.00 23 1002.5
20260504013402 86 123 0.0 0.0 0.00 0.00 0.00 22 1002.5
20260504012402 86 123 0.0 0.0 0.00 0.00 0.00 21 1002.6
20260504011903 86 123 0.0 0.0 0.00 0.00 0.00 22 1002.6
20260504011403 86 123 0.0 0.0 0.00 0.00 0.00 22 1002.7
20260504010903 86 123 0.0 0.0 0.00 0.00 0.00 22 1002.7
20260504010402 86 123 0.0 0.0 0.00 0.00 0.00 22 1002.8
20260504005903 86 117 0.0 0.0 0.00 0.00 0.00 22 1002.8
20260504004903 85 117 0.0 0.0 0.00 0.00 0.00 23 1003.0
20260504004403 85 117 0.0 0.0 0.00 0.00 0.00 22 1003.2
20260504003902 85 117 0.0 0.0 0.00 0.00 0.00 23 1003.3
20260504003403 85 117 0.0 0.0 0.00 0.00 0.00 23 1003.4
20260504002403 85 117 0.0 2.0 0.00 0.00 0.00 24 1003.5
20260504001903 85 113 0.0 3.0 0.00 0.00 0.00 24 1003.5
20260504001402 85 61 0.0 1.0 0.00 0.00 0.00 22 1003.5
20260504000903 85 110 0.0 0.0 0.00 0.00 0.00 24 1003.5
20260503235902 85 110 0.0 1.0 0.00 0.00 0.00 23 1003.6
20260503235403 85 128 0.0 1.0 0.00 0.00 0.00 23 1003.6
20260503234902 85 128 0.0 1.0 0.00 0.00 0.00 23 1003.7
20260503234403 85 128 0.0 0.0 0.00 0.00 0.00 23 1003.8
20260503233903 85 128 0.0 1.0 0.00 0.00 0.00 22 1003.8
20260503233403 85 67 0.0 1.0 0.00 0.00 0.00 22 1003.7
20260503232903 86 104 0.0 1.0 0.00 0.00 0.00 22 1003.7
20260503232402 86 2 0.0 1.0 0.00 0.00 0.00 22 1003.8
20260503231902 86 107 0.0 3.0 0.00 0.00 0.00 22 1003.8
20260503231403 86 102 0.0 1.0 0.00 0.00 0.00 23 1003.8
20260503230903 85 122 0.0 0.0 0.00 0.00 0.00 23 1003.8
20260503225403 85 120 0.0 0.0 0.00 0.00 0.00 23 1004.1
20260503224902 85 119 0.0 1.0 0.00 0.00 0.00 23 1004.2
20260503223903 85 98 0.0 2.0 0.00 0.00 0.00 22 1004.3
20260503221403 84 133 0.0 0.0 0.00 0.00 0.00 24 1004.7
20260503220903 84 133 0.0 1.0 0.00 0.00 0.00 22 1004.8
20260503220403 84 157 1.0 3.0 0.00 0.00 0.00 23 1004.7
20260503215903 84 130 0.0 1.0 0.00 0.00 0.00 23 1004.8
20260503215403 84 130 0.0 2.0 0.00 0.00 0.00 23 1004.8
20260503214902 83 88 0.0 1.0 0.00 0.00 0.00 23 1005.1
20260503214403 83 136 0.0 2.0 0.00 0.00 0.00 24 1005.2
20260503213902 83 128 1.0 3.0 0.00 0.00 0.00 24 1005.3
20260503213402 83 144 0.0 3.0 0.00 0.00 0.00 24 1005.3
20260503212903 82 123 0.0 2.0 0.00 0.00 0.00 25 1005.4
20260503212402 82 121 1.0 6.0 0.00 0.00 0.00 23 1005.5
20260503211903 82 310 0.0 6.0 0.00 0.00 0.00 24 1005.5
20260503211403 82 93 2.0 5.0 0.00 0.00 0.00 23 1005.6
20260503210903 82 151 1.0 2.0 0.00 0.00 0.00 23 1005.7
20260503210402 82 150 0.0 5.0 0.00 0.00 0.00 23 1005.7
20260503205902 81 120 0.0 2.0 0.00 0.00 0.00 24 1005.9
20260503205403 81 140 0.0 2.0 0.00 0.00 0.00 24 1006.0
20260503204903 80 65 0.0 1.0 0.00 0.00 0.00 26 1006.0
20260503204402 80 134 0.0 2.0 0.00 0.00 0.00 24 1006.1
20260503203903 79 70 0.0 2.0 0.00 0.00 0.00 25 1006.2
20260503203402 79 339 0.0 0.0 0.00 0.00 0.00 29 1006.4
20260503202903 79 339 1.0 3.0 0.00 0.00 0.00 31 1006.5
20260503202402 78 314 2.0 6.0 0.00 0.00 0.00 30 1006.5
20260503201903 78 330 1.0 3.0 0.00 0.00 0.00 32 1006.5
20260503201403 78 321 2.0 5.0 0.00 0.00 0.00 31 1006.6
20260503200903 78 350 2.0 5.0 0.00 0.00 0.00 30 1006.7
20260503200403 77 347 0.0 0.0 0.00 0.00 0.00 29 1006.7
20260503195903 77 347 0.0 2.0 0.00 0.00 0.00 32 1006.8
20260503195403 77 342 0.0 5.0 0.00 0.00 0.00 28 1006.9
20260503194903 76 326 1.0 5.0 0.00 0.00 0.00 30 1007.1
20260503194403 76 51 0.0 1.0 0.00 0.00 0.00 28 1007.2
20260503193903 76 53 0.0 1.0 0.00 0.00 0.00 28 1007.3
20260503193403 75 1 1.0 2.0 0.00 0.00 0.00 29 1007.4
20260503192903 75 0 2.0 3.0 0.00 0.00 0.00 31 1007.5
20260503191903 74 17 0.0 0.0 0.00 0.00 0.00 30 1007.8
20260503191403 74 0 1.0 3.0 0.00 0.00 0.00 32 1007.9
20260503190903 74 346 1.0 3.0 0.00 0.00 0.00 33 1007.9
20260503190403 73 0 1.0 3.0 0.00 0.00 0.00 32 1007.9
20260503185903 73 349 0.0 1.0 0.00 0.00 0.00 33 1008.1
20260503185403 72 354 0.0 3.0 0.00 0.00 0.00 35 1008.2
20260503184903 72 314 1.0 2.0 0.00 0.00 0.00 34 1008.3
20260503183903 71 288 1.0 2.0 0.00 0.00 0.00 38 1008.5
20260503183403 71 337 2.0 5.0 0.00 0.00 0.00 36 1008.5
20260503182402 70 314 1.0 5.0 0.00 0.00 0.00 37 1008.7
20260503181903 69 313 1.0 5.0 0.00 0.00 0.00 37 1008.9
20260503180403 68 329 1.0 3.0 0.00 0.00 0.00 40 1009.0
20260503175903 68 302 0.0 0.0 0.00 0.00 0.00 40 1009.0
20260503175403 68 301 0.0 1.0 0.00 0.00 0.00 41 1009.1
20260503174903 68 183 0.0 0.0 0.00 0.00 0.00 42 1009.2
20260503174403 67 172 1.0 2.0 0.00 0.00 0.00 41 1009.2
20260503173903 67 356 0.0 3.0 0.00 0.00 0.00 42 1009.3
20260503173403 67 333 0.0 3.0 0.00 0.00 0.00 42 1009.4
20260503172903 67 332 0.0 0.0 0.00 0.00 0.00 43 1009.5
20260503172404 67 332 0.0 2.0 0.00 0.00 0.00 42 1009.6
20260503171902 67 311 0.0 3.0 0.00 0.00 0.00 42 1009.6
20260503171403 67 306 0.0 2.0 0.00 0.00 0.00 42 1009.7
20260503170903 67 61 0.0 3.0 0.00 0.00 0.00 42 1009.7
20260503170403 67 142 0.0 3.0 0.00 0.00 0.00 41 1009.7
20260503150903 54 138 0.0 0.0 0.00 0.00 0.00 60 1011.1
20260503150403 54 138 0.0 1.0 0.00 0.00 0.00 62 1010.8
20260503131402 48 116 1.0 2.0 0.00 0.00 0.00 69 1010.5
20260503130903 48 116 0.0 0.0 0.00 0.00 0.00 68 1010.4
20260503130403 48 116 0.0 0.0 0.00 0.00 0.00 68 1010.3
20260503110403 52 116 0.0 0.0 0.00 0.00 0.00 62 1010.2